User: anonymous   Login
Location: Malvern Link
(52.1333°N, 2.3000°W)
Time: 03:10:50
(UTC+00:00)
Language:

Resurs 01 Rocket - Orbit

View from above orbital plane
View from above orbital plane
View from above satellite
View from above satellite

Ground track
Ground track

The orbit data is extracted from the following two-line orbital elements,

1 23343U 94074B   20329.20096139 +.00000052 +00000-0 +14695-4 0  9991
2 23343 097.9785 020.6073 0006911 007.9788 028.1672 14.76847213401998
Epoch (UTC): 24 November 2020 04:49:23
Eccentricity: 0.0006911
inclination: 97.9785°
perigee height: 634 km
apogee height: 644 km
right ascension of ascending node: 20.6073°
argument of perigee: 7.9788°
revolutions per day: 14.76847213
mean anomaly at epoch: 28.1672°
orbit number at epoch: 40199

The dashed part of the orbit path shows where the satellite is in the earth's shadow,  

DLR